[[{"header":{"parameterUnit":"m.s-1","parameterCategory":1,"la1":30.2991,"la2":30.254,"lo1":-89.0895,"lo2":-89.0444,"dy":0.0017,"dx":0.0017,"nx":28,"ny":28,"refTime":"2025-01-05T09:00:00:Z","depth":0,"parameterNumber":2,"parameterNumberName":"U-component_of_WINDS"},"data":[0,0,0,0,0,0,0,0,0,0,0,0,0,0,0,0,0,0,0,0,0,0,0,0,0,0,0,0,0,0,0,0,0,0,0,0,0,0,0,0,0,0,0,0,0,0,0,0,0,0,0,0,0,0,0,0,0,0,-5.1927,-5.1928,0,-5.1993,-5.1994,-5.1994,-5.1943,-5.1941,-5.1939,-5.1937,-5.2003,-5.2006,-5.201,0,0,0,0,0,0,0,0,0,0,0,0,0,-5.1757,-5.176,-5.1927,-5.1928,-5.1929,-5.1993,-5.1994,-5.1995,-5.1944,-5.1941,-5.1939,-5.1936,-5.2001,-5.2006,-5.2011,0,0,0,0,0,0,0,0,0,0,0,0,0,-5.1828,-5.1761,-5.1927,-5.1911,-5.191,-5.1993,-5.1994,-5.1995,-5.1944,-5.1941,-5.1938,-5.1935,-5.2,-5.2006,-5.2011,-5.2112,0,0,-5.2028,-5.2031,0,0,0,0,0,0,0,0,-5.1824,-5.1834,-5.1913,-5.1912,-5.1912,-5.1957,-5.1958,-5.2034,-5.1945,-5.1931,-5.1937,-5.1933,-5.199,-5.1996,-5.2016,-5.2115,-5.2118,-5.2029,-5.2032,-5.2035,-5.2037,0,0,0,0,0,0,0,-5.1819,-5.1831,-5.1953,-5.1914,-5.1913,-5.1901,-5.1907,-5.1972,-5.1978,-5.1932,-5.1929,-5.1937,-5.1989,-5.201,-5.2017,-5.2119,-5.2029,-5.2034,-5.2037,-5.204,-5.2305,-5.2308,0,0,0,0,0,0,-5.1816,-5.1827,-5.1951,-5.1955,-5.1859,-5.1906,-5.1914,-5.1946,-5.1977,-5.1979,-5.194,-5.1935,-5.2002,-5.201,-5.2019,-5.2139,-5.2035,-5.204,-5.2043,-5.2301,-5.2306,-5.231,0,0,0,0,0,0,-5.1812,-5.1827,-5.1948,-5.189,-5.1905,-5.1913,-5.1949,-5.1949,-5.197,-5.1983,-5.1984,-5.1961,-5.2,-5.2011,-5.209,-5.214,-5.2043,-5.2048,-5.2297,-5.2303,-5.2308,-5.238,0,0,0,0,0,0,-5.1808,-5.1826,-5.1864,-5.1891,-5.1908,-5.2018,-5.1952,-5.1952,-5.198,-5.1974,-5.2003,-5.2005,-5.1998,-5.2081,-5.2095,-5.2147,-5.2052,-5.2292,-5.23,-5.2306,-5.2373,-5.2387,-5.2399,0,0,0,0,0,-5.1802,-5.1882,-5.1867,-5.1882,-5.1956,-5.2021,-5.203,-5.2022,-5.1984,-5.2023,-5.2032,-5.2004,-5.2133,-5.209,-5.2105,-5.2159,-5.2289,-5.2298,-5.2305,-5.2367,-5.2384,-5.2399,0,0,0,0,0,0,-5.1859,-5.1885,-5.1868,-5.196,-5.1989,-5.2012,-5.206,-5.204,-5.208,-5.2072,-5.206,-5.2067,-5.215,-5.2162,-5.2113,-5.2259,-5.2205,-5.2217,-5.2247,-5.2263,-5.2276,-5.227,-5.2057,0,0,0,0,0,-5.1883,-5.1934,-5.1953,-5.2032,-5.2047,-5.2052,-5.208,-5.2071,-5.21,-5.2112,-5.2126,-5.2156,-5.2203,-5.2234,-5.2278,-5.2376,-5.2381,-5.242,-5.2433,-5.2444,-5.2454,-5.2506,-5.2524,-5.2337,-5.2336,-5.2336,0,0,-5.1931,-5.1952,-5.1984,-5.2044,-5.2065,-5.2118,-5.2062,-5.212,-5.2159,-5.212,-5.2195,-5.2208,-5.2239,-5.2328,-5.2367,-5.2341,-5.2507,-5.2455,-5.2463,-5.2467,-5.2516,-5.2534,-5.255,-5.2342,-5.2341,-5.234,0,0,-5.2046,-5.2067,-5.2135,-5.2158,-5.2192,-5.2195,-5.2212,-5.2239,-5.2246,-5.2321,-5.2294,-5.234,-5.2422,-5.2446,-5.2468,-5.2596,-5.2571,-5.2611,-5.2679,-5.273,-5.2745,-5.2758,-5.2802,-5.2819,-5.2621,-5.2621,-5.2621,0,-5.2102,-5.2181,-5.2172,-5.2233,-5.226,-5.2229,-5.2298,-5.2321,-5.2367,-5.2386,-5.2357,-5.246,-5.2479,-5.2572,-5.2604,-5.2624,-5.2642,-5.2606,-5.2744,-5.2756,-5.2768,-5.2811,-5.2828,-5.2625,-5.2625,-5.2625,-5.2624,0,-5.2247,-5.2303,-5.2353,-5.24,-5.2433,-5.2497,-5.2499,-5.2533,-5.2523,-5.2529,-5.2607,-5.2629,-5.2678,-5.27,-5.269,-5.2793,-5.2775,-5.2745,-5.2691,-5.2791,-5.283,-5.2847,-5.2632,-5.263,-5.2629,-5.2628,0,0,-5.2398,-5.2441,-5.2459,-5.248,-5.2517,-5.2559,-5.2623,-5.2671,-5.2701,-5.2735,-5.2787,-5.2859,-5.2831,-5.2857,-5.285,-5.2896,-5.2995,-5.286,-5.286,-5.2883,-5.3109,-5.313,-5.3149,-5.298,-5.2983,-5.2985,-5.3106,0,-5.2514,-5.2624,-5.262,-5.2723,-5.2774,-5.2747,-5.2802,-5.2831,-5.2839,-5.2883,-5.2892,-5.2942,-5.2903,-5.2919,-5.2963,-5.2973,-5.3039,-5.2965,-5.3028,-5.303,-5.3018,-5.317,-5.3192,-5.3305,-5.3121,-5.3124,-5.3126,0,-5.2663,-5.2703,-5.2811,-5.2841,-5.2862,-5.2912,-5.2957,-5.3,-5.3032,-5.3035,-5.3066,-5.3051,-5.3116,-5.3062,-5.3151,-5.31,-5.3126,-5.3136,-5.314,-5.3143,-5.3082,-5.3176,-5.3341,-5.3357,-5.315,-5.3149,-5.3147,0,-5.2761,-5.2842,-5.2917,-5.2936,-5.2973,-5.3009,-5.3026,-5.3055,-5.3085,-5.3124,-5.3143,-5.319,-5.3215,-5.3251,-5.325,-5.3211,-5.334,-5.3286,-5.3343,-5.3343,-5.3369,-5.3367,-5.3538,-5.3389,-5.3389,-5.3389,-5.3389,0,-5.2889,-5.2957,-5.2961,-5.3008,-5.3083,-5.3077,-5.3152,-5.3165,-5.3191,-5.324,-5.322,-5.3266,-5.3263,-5.3309,-5.3309,-5.3382,-5.3394,-5.3398,-5.3397,-5.3399,-5.3398,-5.3414,-5.3405,-5.3393,-5.3392,-5.3391,-5.3391,0,-5.301,-5.3016,-5.3096,-5.3126,-5.3135,-5.3188,-5.3213,-5.3257,-5.3265,-5.3326,-5.3341,-5.3352,-5.3406,-5.341,-5.3472,-5.3472,-5.356,-5.3551,-5.3549,-5.3547,-5.3604,-5.3598,-5.379,-5.3814,-5.3651,-5.3652,-5.3654,0,-5.3091,-5.3142,-5.3177,-5.3208,-5.3228,-5.3279,-5.3309,-5.3307,-5.334,-5.3382,-5.3421,-5.3473,-5.3514,-5.3602,-5.3616,-5.3664,-5.3655,-5.3719,-5.3662,-5.3662,-5.3654,-5.3651,-5.3656,-5.3729,-5.3731,-5.3732,-5.3734,0,-5.3233,-5.3234,-5.328,-5.3327,-5.3365,-5.3401,-5.3436,-5.3462,-5.3464,-5.3503,-5.3558,-5.359,-5.3655,-5.3707,-5.3754,-5.3771,-5.3753,-5.3752,-5.3768,-5.3769,-5.3765,-5.3767,-5.3578,-5.3747,-5.3746,-5.3745,-5.3744,-5.3743,-5.3336,-5.338,-5.3412,-5.3464,-5.349,-5.3523,-5.3566,-5.3579,-5.3626,-5.3678,-5.3674,-5.3736,-5.3768,-5.3829,-5.3851,-5.3899,-5.3877,-5.3899,-5.3905,-5.391,-5.3916,-5.376,-5.3907,-5.3907,-5.3907,-5.3906,-5.3906,0,-5.3476,-5.3496,-5.3544,-5.3593,-5.3634,-5.3615,-5.3652,-5.3687,-5.3742,-5.3774,-5.3816,-5.388,-5.3931,-5.395,-5.4,-5.4034,-5.4027,-5.4047,-5.4044,-5.4048,-5.3933,-5.3914,-5.4052,-5.4052,-5.4052,-5.4052,-5.4052,-5.4052,-5.3554,-5.3629,-5.3634,-5.3721,-5.374,-5.3801,-5.3824,-5.3854,-5.388,-5.3952,-5.3995,-5.4007,-5.4034,-5.4086,-5.4132,-5.4137,-5.4155,-5.4179,-5.4179,-5.4071,-5.4056,-5.4042,-5.4024,-5.4183,-5.4183,-5.429,-5.4291,-5.4292]},{"header":{"parameterUnit":"m.s-1","parameterCategory":1,"la1":30.2991,"la2":30.254,"lo1":-89.0895,"lo2":-89.0444,"dy":0.0017,"dx":0.0017,"nx":28,"ny":28,"refTime":"2025-01-05T09:00:00:Z","depth":0,"parameterNumber":3,"parameterNumberName":"V-component_of_WINDS"},"data":[0,0,0,0,0,0,0,0,0,0,0,0,0,0,0,0,0,0,0,0,0,0,0,0,0,0,0,0,0,0,0,0,0,0,0,0,0,0,0,0,0,0,0,0,0,0,0,0,0,0,0,0,0,0,0,0,0,0,4.5796,4.5797,0,4.5929,4.5931,4.5933,4.5923,4.5921,4.5919,4.5917,4.6054,4.6059,4.6065,0,0,0,0,0,0,0,0,0,0,0,0,0,4.5535,4.554,4.5796,4.5797,4.5799,4.5929,4.5931,4.5933,4.5923,4.592,4.5918,4.5916,4.6052,4.6059,4.6065,0,0,0,0,0,0,0,0,0,0,0,0,0,4.5656,4.5541,4.5795,4.581,4.5812,4.5929,4.5931,4.5933,4.5923,4.592,4.5917,4.5915,4.605,4.6058,4.6066,4.6177,0,0,4.6092,4.6095,0,0,0,0,0,0,0,0,4.565,4.5666,4.5806,4.5809,4.5812,4.5906,4.589,4.6015,4.5924,4.5881,4.5917,4.5913,4.6007,4.6019,4.6051,4.6184,4.619,4.6092,4.6097,4.6101,4.6103,0,0,0,0,0,0,0,4.5641,4.566,4.5849,4.5808,4.5812,4.5811,4.5825,4.5913,4.5959,4.5885,4.5884,4.59,4.6008,4.6043,4.6054,4.6192,4.6092,4.6099,4.6104,4.6108,4.6428,4.6431,0,0,0,0,0,0,4.5629,4.5653,4.5844,4.5853,4.5722,4.5818,4.5833,4.5879,4.5958,4.5968,4.5903,4.5899,4.603,4.6044,4.6059,4.6196,4.6101,4.6109,4.6113,4.6424,4.6428,4.6432,0,0,0,0,0,0,4.5624,4.5646,4.5839,4.5753,4.5777,4.5825,4.5877,4.5883,4.5917,4.5972,4.598,4.5929,4.6028,4.6047,4.6149,4.6201,4.6112,4.612,4.642,4.6426,4.643,4.6471,0,0,0,0,0,0,4.5616,4.5644,4.5686,4.5754,4.5782,4.5926,4.588,4.5888,4.5932,4.5928,4.5999,4.6008,4.6027,4.6137,4.6157,4.6211,4.6126,4.6416,4.6422,4.6429,4.6465,4.6477,4.6487,0,0,0,0,0,4.5607,4.5691,4.5688,4.5711,4.5835,4.5929,4.5945,4.5966,4.5936,4.5979,4.6015,4.6005,4.6192,4.6147,4.617,4.6227,4.6412,4.6421,4.6428,4.6461,4.6475,4.6487,0,0,0,0,0,0,4.5626,4.57,4.5697,4.5806,4.5861,4.5927,4.5981,4.598,4.6044,4.6039,4.6062,4.6078,4.6182,4.6215,4.6163,4.6341,4.6299,4.6311,4.6315,4.6329,4.634,4.633,4.6133,0,0,0,0,0,4.5644,4.5713,4.5774,4.5864,4.5892,4.5932,4.5974,4.5986,4.6044,4.6067,4.611,4.6168,4.624,4.6287,4.6356,4.6471,4.6488,4.6522,4.6533,4.6542,4.6552,4.6619,4.6636,4.6458,4.6458,4.6458,0,0,4.5679,4.5728,4.577,4.5869,4.5914,4.5987,4.5952,4.6029,4.6085,4.6079,4.6178,4.6213,4.6279,4.6389,4.644,4.642,4.6606,4.6552,4.6558,4.6564,4.6629,4.6646,4.6661,4.6464,4.6463,4.6462,0,0,4.5782,4.5825,4.5906,4.5952,4.6021,4.6047,4.6067,4.6135,4.6157,4.6258,4.6257,4.6323,4.6446,4.6494,4.6534,4.6661,4.6656,4.6683,4.674,4.6805,4.6819,4.6832,4.6879,4.6896,4.6694,4.6694,4.6694,0,4.5817,4.5926,4.5948,4.6028,4.6073,4.6073,4.6157,4.6201,4.6288,4.632,4.6297,4.6454,4.6498,4.6621,4.6652,4.6685,4.671,4.6674,4.6816,4.6828,4.684,4.6886,4.6903,4.6697,4.6697,4.6696,4.6696,0,4.5968,4.6044,4.6102,4.6188,4.6239,4.632,4.6356,4.6407,4.6415,4.6445,4.655,4.6604,4.6686,4.6716,4.6724,4.6842,4.6828,4.681,4.6768,4.686,4.6903,4.692,4.6701,4.67,4.6699,4.6699,0,0,4.6082,4.6183,4.6204,4.6244,4.6322,4.6382,4.6465,4.6546,4.659,4.6651,4.6723,4.683,4.6815,4.6861,4.6876,4.6933,4.7033,4.6909,4.6911,4.6931,4.7169,4.7183,4.7202,4.7031,4.7034,4.7037,4.7164,0,4.6194,4.634,4.6365,4.6494,4.6566,4.657,4.6643,4.67,4.6732,4.6799,4.6834,4.691,4.6884,4.6913,4.6969,4.7009,4.7081,4.7,4.7099,4.7103,4.7082,4.7224,4.7237,4.7355,4.7181,4.7184,4.7186,0,4.6341,4.6409,4.6546,4.6618,4.6649,4.6714,4.6792,4.6856,4.6922,4.6941,4.6996,4.7005,4.7094,4.7049,4.7173,4.7117,4.716,4.7186,4.7192,4.7201,4.7149,4.7239,4.7392,4.741,4.7212,4.721,4.7208,0,4.6414,4.6539,4.6637,4.6672,4.6758,4.6804,4.6842,4.6905,4.6954,4.7023,4.7055,4.7133,4.7176,4.7238,4.7269,4.7233,4.7393,4.7349,4.7413,4.7412,4.7445,4.7443,4.7608,4.7472,4.7472,4.7472,4.7471,0,4.6535,4.6619,4.6671,4.6732,4.6828,4.6857,4.6951,4.6988,4.7045,4.7115,4.7123,4.7189,4.7226,4.7298,4.7323,4.7424,4.7443,4.7462,4.7468,4.7462,4.746,4.749,4.7483,4.7476,4.7475,4.7474,4.7474,0,4.6631,4.6669,4.6777,4.6851,4.6872,4.6939,4.7003,4.7064,4.7097,4.7186,4.7208,4.726,4.7346,4.7384,4.7488,4.7506,4.7622,4.7621,4.7599,4.7601,4.7663,4.7657,4.7854,4.7883,4.7727,4.7728,4.773,0,4.6705,4.677,4.6852,4.69,4.694,4.7016,4.7066,4.7099,4.7151,4.7234,4.7286,4.7372,4.7442,4.7579,4.7627,4.7708,4.7711,4.7774,4.7723,4.7716,4.7713,4.7709,4.7717,4.7783,4.7785,4.7786,4.7787,0,4.6835,4.6852,4.6924,4.7004,4.7064,4.7129,4.7192,4.7231,4.7274,4.7333,4.7421,4.7476,4.7585,4.7671,4.7757,4.7798,4.7801,4.7803,4.7823,4.7817,4.7802,4.7813,4.7626,4.7798,4.7797,4.7796,4.7796,4.7795,4.6923,4.6983,4.7051,4.7132,4.7184,4.7244,4.7306,4.7348,4.7422,4.7513,4.7529,4.7623,4.7692,4.7807,4.7852,4.7928,4.7913,4.794,4.7947,4.7953,4.7958,4.779,4.7943,4.7943,4.7943,4.7943,4.7943,0,4.7055,4.71,4.7174,4.7264,4.7329,4.7327,4.7398,4.7453,4.7536,4.76,4.767,4.7774,4.7859,4.7915,4.8002,4.8052,4.8056,4.8074,4.807,4.8081,4.7966,4.7941,4.8069,4.8069,4.8069,4.8069,4.8069,4.8069,4.713,4.7232,4.7258,4.7386,4.7431,4.7524,4.7565,4.7622,4.7674,4.7789,4.786,4.7897,4.7959,4.8051,4.813,4.8145,4.8177,4.8196,4.821,4.8101,4.8088,4.8075,4.8052,4.8202,4.8202,4.8319,4.832,4.832]}]]